Doha, Qatar

10:31 PM +03 on November 24, 2017 (GMT +0300)
Doha International

Weather History for OTBD - December, 2011

Change the Weather History Date:

Thursday, December 22, 2011

  Actual Average Record
Temperature  
Mean Temperature 69 °F -  
Max Temperature 75 °F 72 °F 87 °F (2005)
Min Temperature 63 °F 56 °F 55 °F (2006)
Cooling Degree Days 4    
Growing Degree Days 19 (Base 50)    
Moisture  
Dew Point 57 °F    
Average Humidity 66    
Maximum Humidity 78    
Minimum Humidity 45    
Precipitation  
Precipitation 0.00 in 0.02 in - ()
Sea Level Pressure  
Sea Level Pressure 30.16 in    
Wind  
Wind Speed 7 mph ()    
Max Wind Speed 10 mph    
Max Gust Speed -    
Visibility 5.8 miles    
Events      
Averages and records for this station are not official NWS values.
T = Trace of Precipitation, MM = Missing Value Source: Averaged Metar Reports

Daily Weather History Graph

Daily Weather History Graph

Search for Another Location

Airport or City:

Trip Planner

Search our weather history database for the weather conditions in past years. The results will help you decide how hot, cold, wet, or windy it might be!

Date:

Astronomy

Dec. 22, 2011 Rise Set
Actual Time 6:15 AM +03 4:49 PM +03
Civil Twilight 5:49 AM +03 5:14 PM +03
Nautical Twilight 5:21 AM +03 5:42 PM +03
Astronomical Twilight 4:53 AM +03 6:10 PM +03
Moon 3:34 AM +03 (12/22) 2:36 PM +03 (12/22)
Length of Visible Light 11h 24m
Length of Day
10h 34m
Waning Crescent, 8% of the Moon is Illuminated
Dec 22
Waning Crescent
Dec 24
New
Jan 1
First Quarter
Jan 9
Full
Jan 16
Last Quarter

Hourly Weather History & Observations

Time (+03) Temp. Dew Point Humidity Pressure Visibility Wind Dir Wind Speed Gust Speed Precip Events Conditions
12:00 AM 66.2 °F 57.2 °F 73% 30.18 in - NNW 9.2 mph - N/A   Clear
12:30 AM 66.2 °F 59.0 °F 78% 30.18 in - NNW 8.1 mph - N/A   Clear
1:00 AM 66.2 °F 57.2 °F 73% 30.18 in - NNW 9.2 mph - N/A   Clear
1:30 AM 66.2 °F 57.2 °F 73% 30.15 in - NNW 9.2 mph - N/A   Clear
2:00 AM 66.2 °F 59.0 °F 78% 30.15 in - NNW 8.1 mph - N/A   Clear
2:30 AM 66.2 °F 57.2 °F 73% 30.15 in - NNW 8.1 mph - N/A   Clear
3:00 AM 66 °F 58 °F 69% 30.17 in 6 mi NNW 8.1 mph - -   Haze
3:00 AM 66.2 °F 59.0 °F 78% 30.15 in 5.6 mi NNW 8.1 mph - N/A   Unknown
3:30 AM 66.2 °F 57.2 °F 73% 30.15 in 5.6 mi NW 4.6 mph - N/A   Unknown
4:00 AM 66.2 °F 57.2 °F 73% 30.15 in 5.6 mi NW 3.5 mph - N/A   Unknown
4:30 AM 64.4 °F 57.2 °F 77% 30.18 in 5.6 mi NW 3.5 mph - N/A   Unknown
5:00 AM 64.4 °F 57.2 °F 77% 30.18 in 5.6 mi NNW 4.6 mph - N/A   Unknown
5:30 AM 64.4 °F 57.2 °F 77% 30.18 in 5.6 mi NNW 4.6 mph - N/A   Unknown
6:00 AM 64.4 °F 57.2 °F 77% 30.21 in 5.6 mi NW 3.5 mph - N/A   Unknown
6:30 AM 64.4 °F 57.2 °F 77% 30.21 in 5.0 mi NNW 5.8 mph - N/A   Unknown
7:00 AM 64.4 °F 57.2 °F 77% 30.21 in 5.6 mi Variable 2.3 mph - N/A   Unknown
7:30 AM 66.2 °F 57.2 °F 73% 30.24 in - NNW 3.5 mph - N/A   Clear
8:00 AM 68.0 °F 57.2 °F 68% 3.01 in - NW 4.6 mph - N/A   Clear
8:30 AM 69.8 °F 57.2 °F 64% 30.24 in - NNW 10.4 mph - N/A   Clear
9:00 AM 70 °F 57 °F 55% 30.25 in 9 mi NNW 9.2 mph - -  
9:00 AM 69.8 °F 57.2 °F 64% 30.24 in - NNW 9.2 mph - N/A   Clear
9:30 AM 69.8 °F 57.2 °F 64% 30.24 in - NNW 10.4 mph - N/A   Clear
10:00 AM 71.6 °F 57.2 °F 60% 30.21 in 6.2 mi NNW 9.2 mph - N/A   Partly Cloudy
10:30 AM 71.6 °F 57.2 °F 60% 30.21 in 6.2 mi NNW 8.1 mph - N/A   Partly Cloudy
11:00 AM 71.6 °F 57.2 °F 60% 30.21 in 6.2 mi NNW 9.2 mph - N/A   Partly Cloudy
11:30 AM 73.4 °F 57.2 °F 57% 30.18 in 6.2 mi North 8.1 mph - N/A   Partly Cloudy
12:00 PM 73.4 °F 55.4 °F 53% 30.18 in 6.2 mi NNE 10.4 mph - N/A   Partly Cloudy
12:30 PM 73.4 °F 55.4 °F 53% 30.15 in 6.2 mi North 10.4 mph - N/A   Partly Cloudy
1:00 PM 73.4 °F 55.4 °F 53% 30.12 in 6.2 mi NNE 10.4 mph - N/A   Partly Cloudy
1:30 PM 75.2 °F 57.2 °F 53% 30.12 in 6.2 mi North 9.2 mph - N/A   Partly Cloudy
2:00 PM 73.4 °F 55.4 °F 53% 30.12 in 6.2 mi NNE 9.2 mph - N/A   Partly Cloudy
2:30 PM 73.4 °F 55.4 °F 53% 30.12 in 6.2 mi NNE 9.2 mph - N/A   Partly Cloudy
3:00 PM 73 °F 56 °F 45% 30.12 in 6 mi NNE 9.2 mph - -   Scattered Clouds
3:00 PM 73.4 °F 55.4 °F 53% 30.09 in 6.2 mi NNE 9.2 mph - N/A   Partly Cloudy
3:30 PM 71.6 °F 55.4 °F 57% 30.09 in 6.2 mi NNE 9.2 mph - N/A   Partly Cloudy
4:00 PM 71.6 °F 57.2 °F 60% 30.09 in 5.6 mi NNE 9.2 mph - N/A   Unknown
4:30 PM 69.8 °F 59.0 °F 68% 30.09 in 5.0 mi NNE 10.4 mph - N/A   Unknown
5:00 PM 69.8 °F 59.0 °F 68% 30.12 in 4.3 mi NNE 6.9 mph - N/A   Unknown
5:30 PM 69.8 °F 59.0 °F 68% 30.12 in 5.0 mi North 8.1 mph - N/A   Unknown
6:00 PM 69.8 °F 59.0 °F 68% 30.12 in 5.0 mi North 8.1 mph - N/A   Unknown
6:30 PM 68.0 °F 59.0 °F 73% 30.12 in 5.0 mi North 6.9 mph - N/A   Unknown
7:00 PM 68.0 °F 59.0 °F 73% 30.12 in 5.0 mi North 4.6 mph - N/A   Unknown
7:30 PM 68.0 °F 57.2 °F 68% 30.12 in 5.0 mi North 5.8 mph - N/A   Unknown
8:00 PM 68.0 °F 57.2 °F 68% 30.12 in 5.0 mi NNW 8.1 mph - N/A   Unknown
8:30 PM 68.0 °F 55.4 °F 64% 30.15 in - NNW 8.1 mph - N/A   Clear
9:00 PM 68.0 °F 55.4 °F 64% 30.15 in - NNW 8.1 mph - N/A   Clear
9:30 PM 68.0 °F 55.4 °F 64% 30.15 in - NNW 6.9 mph - N/A   Clear
10:00 PM 68.0 °F 55.4 °F 64% 30.15 in - NNW 5.8 mph - N/A   Clear
10:30 PM 68.0 °F 55.4 °F 64% 30.15 in - NW 3.5 mph - N/A   Clear
11:00 PM 66.2 °F 55.4 °F 68% 30.12 in - NNW 4.6 mph - N/A   Clear
11:30 PM 66.2 °F 55.4 °F 68% 30.12 in - Variable 2.3 mph - N/A   Clear